TimePST,TemperatureF,Dew PointF,Humidity,Sea Level PressureIn,VisibilityMPH,Wind Direction,Wind SpeedMPH,Gust SpeedMPH,PrecipitationIn,Events,Conditions,WindDirDegrees,DateUTC
12:53 AM,39.9,24.1,53,29.89,10.0,SW,13.8,-,N/A,,Clear,220,2013-02-23 08:53:00
1:53 AM,37.0,23.0,57,29.92,10.0,SSW,11.5,-,N/A,,Clear,200,2013-02-23 09:53:00
2:53 AM,36.0,26.1,67,29.94,10.0,SW,10.4,-,N/A,,Clear,220,2013-02-23 10:53:00
3:53 AM,35.1,27.0,72,29.94,10.0,WSW,8.1,-,N/A,,Clear,240,2013-02-23 11:53:00
4:53 AM,37.0,27.0,67,29.96,10.0,WSW,13.8,-,N/A,,Clear,240,2013-02-23 12:53:00
5:53 AM,37.0,27.0,67,29.97,10.0,WSW,18.4,23.0,N/A,,Clear,240,2013-02-23 13:53:00
6:53 AM,37.9,28.0,68,30.00,10.0,WSW,20.7,26.5,N/A,,Clear,240,2013-02-23 14:53:00
7:53 AM,39.0,28.9,67,30.03,10.0,SW,17.3,-,N/A,,Clear,230,2013-02-23 15:53:00
8:53 AM,39.9,28.9,65,30.05,10.0,SW,13.8,-,N/A,,Clear,230,2013-02-23 16:53:00
9:53 AM,44.1,30.9,60,30.06,10.0,SW,13.8,-,N/A,,Clear,230,2013-02-23 17:53:00
10:53 AM,50.0,30.0,46,30.08,10.0,SW,17.3,-,N/A,,Clear,230,2013-02-23 18:53:00
11:53 AM,52.0,30.0,43,30.08,10.0,WSW,20.7,-,N/A,,Clear,240,2013-02-23 19:53:00
12:53 PM,55.0,25.0,31,30.08,10.0,WSW,16.1,-,N/A,,Mostly Cloudy,250,2013-02-23 20:53:00
1:53 PM,54.0,24.1,31,30.08,10.0,West,11.5,-,N/A,,Mostly Cloudy,260,2013-02-23 21:53:00
2:53 PM,52.0,25.0,35,30.10,10.0,WNW,12.7,-,N/A,,Overcast,300,2013-02-23 22:53:00
3:53 PM,53.1,23.0,31,30.12,10.0,NW,17.3,25.3,N/A,,Scattered Clouds,320,2013-02-23 23:53:00
4:53 PM,48.9,23.0,36,30.15,10.0,NW,11.5,-,N/A,,Scattered Clouds,310,2013-02-24 00:53:00
5:53 PM,46.0,25.0,44,30.18,10.0,WNW,15.0,-,N/A,,Scattered Clouds,290,2013-02-24 01:53:00
6:53 PM,43.0,25.0,49,30.21,10.0,WNW,10.4,-,N/A,,Scattered Clouds,290,2013-02-24 02:53:00
7:53 PM,42.1,23.0,47,30.25,10.0,West,6.9,-,N/A,,Clear,280,2013-02-24 03:53:00
8:53 PM,39.0,23.0,53,30.27,10.0,Calm,Calm,-,N/A,,Clear,0,2013-02-24 04:53:00
9:53 PM,37.0,21.9,54,30.30,10.0,South,4.6,-,N/A,,Clear,190,2013-02-24 05:53:00
10:53 PM,34.0,21.9,61,30.32,10.0,South,4.6,-,N/A,,Clear,190,2013-02-24 06:53:00
11:53 PM,30.9,24.1,76,30.32,10.0,SW,6.9,-,N/A,,Clear,220,2013-02-24 07:53:00